EW2719 Weather Reports


time (UTC)temp
C
wind
direction
speed
KPH
gust
KPH
rain 1hr
cm
rain 24hr
cm
rain mn
cm
humidity
%
barometer
mb
20260905154539 16 309 40.2 56.3 0.00 0.33 0.05 75 1008.5
20260905153032 16 288 37.0 54.7 0.00 0.33 0.05 75 1008.5
20260905151531 16 305 38.6 64.4 0.00 0.33 0.05 74 1008.3
20260905150035 16 296 38.6 57.9 0.00 0.33 0.05 75 1008.1
20260905144528 16 291 33.8 56.3 0.00 0.33 0.05 76 1008.1
20260905143026 16 294 30.6 45.1 0.00 0.33 0.05 77 1008.0
20260905141525 16 288 37.0 61.2 0.00 0.33 0.05 74 1007.9
20260905140023 17 301 32.2 46.7 0.00 0.33 0.05 76 1007.6
20260905134523 16 289 32.2 49.9 0.00 0.33 0.05 78 1007.4
20260905133020 17 292 25.7 46.7 0.00 0.33 0.05 79 1007.2
20260905131519 16 304 24.1 51.5 0.00 0.33 0.05 82 1007.4
20260905130018 17 271 35.4 57.9 0.00 0.33 0.05 76 1007.1
20260905124520 18 306 30.6 51.5 0.00 0.33 0.05 76 1006.9
20260905123013 17 279 29.0 54.7 0.00 0.33 0.05 77 1006.7
20260905121513 17 303 30.6 56.3 0.00 0.33 0.05 78 1006.7
20260905120018 16 327 32.2 46.7 0.00 0.43 0.05 80 1006.7
20260905114507 17 252 24.1 41.8 0.00 0.43 0.05 84 1006.6
20260905113005 16 284 22.5 41.8 0.00 0.43 0.05 86 1006.4
20260905111505 15 261 25.7 35.4 0.00 0.43 0.05 85 1006.4
20260905110001 16 292 27.4 37.0 0.00 0.46 0.05 83 1006.2
20260905104559 16 286 24.1 38.6 0.00 0.46 0.05 86 1006.0
20260905103102 16 277 19.3 35.4 0.00 0.46 0.05 87 1005.9
20260905101555 16 252 24.1 35.4 0.00 0.46 0.05 85 1005.8
20260905100057 16 257 20.9 32.2 0.00 0.46 0.05 86 1005.6
20260905094550 15 254 20.9 32.2 0.00 0.48 0.05 88 1005.7
20260905093054 15 271 17.7 33.8 0.00 0.48 0.05 87 1005.4
20260905091551 15 288 30.6 43.5 0.00 0.48 0.05 86 1005.4
20260905090048 15 254 17.7 33.8 0.00 0.48 0.05 87 1005.4
20260905084543 15 284 17.7 30.6 0.00 0.48 0.05 88 1005.2
20260905083041 15 272 14.5 30.6 0.00 0.48 0.05 89 1005.1
20260905081538 14 259 14.5 30.6 0.00 0.48 0.05 89 1004.9
20260905080043 14 299 19.3 32.2 0.03 0.48 0.05 89 1004.9
20260905074536 14 260 17.7 30.6 0.03 0.48 0.05 89 1004.7
20260905073035 14 253 9.7 22.5 0.03 0.48 0.05 92 1004.6
20260905071531 13 270 6.4 17.7 0.03 0.48 0.05 91 1004.6
20260905070034 13 286 9.7 20.9 0.00 0.46 0.05 92 1004.4
20260905064525 13 261 8.0 20.9 0.00 0.46 0.05 92 1004.2
20260905063023 12 281 8.0 24.1 0.00 0.46 0.05 93 1004.1
20260905061521 12 285 14.5 25.7 0.00 0.46 0.05 93 1004.0
20260905060020 12 265 12.9 20.9 0.00 0.46 0.05 93 1003.9
20260905054518 12 251 6.4 17.7 0.00 0.46 0.05 94 1003.7
20260905053017 12 209 6.4 17.7 0.00 0.46 0.05 94 1003.8
20260905051517 12 256 3.2 12.9 0.00 0.46 0.05 94 1003.7
20260905050011 11 232 4.8 16.1 0.00 0.46 0.05 94 1003.4
20260905044512 11 236 4.8 16.1 0.00 0.46 0.05 94 1003.3
20260905043006 11 247 4.8 17.7 0.00 0.46 0.05 94 1003.3
20260905041504 11 221 4.8 12.9 0.00 0.46 0.05 94 1003.1
20260905040002 11 262 3.2 12.9 0.00 0.46 0.05 94 1002.9
20260905034501 11 246 6.4 16.1 0.00 0.46 0.05 94 1002.8
20260905033101 12 274 4.8 17.7 0.00 0.46 0.05 94 1002.8
20260905031558 12 278 8.0 24.1 0.03 0.46 0.05 94 1002.6
20260905030106 12 246 6.4 17.7 0.05 0.46 0.05 94 1002.6
20260905024556 12 267 4.8 24.1 0.05 0.46 0.05 93 1002.5
20260905023054 12 242 8.0 20.9 0.05 0.46 0.05 93 1002.4
20260905021552 12 258 12.9 30.6 0.03 0.43 0.03 93 1002.5
20260905020103 12 239 4.8 14.5 0.00 0.43 0.00 93 1002.3
20260905014553 12 267 4.8 16.1 0.00 0.43 0.00 93 1002.1
20260905013052 12 250 4.8 14.5 0.00 0.43 0.00 93 1001.9
20260905011624 12 287 6.4 17.7 0.00 0.43 0.00 93 1001.9
20260905010044 12 263 8.0 22.5 0.00 0.43 0.00 94 1001.9
20260905004544 12 277 6.4 22.5 0.00 0.43 0.00 94 1001.8
20260905003041 12 255 9.7 20.9 0.00 0.43 0.00 94 1001.8
20260905001550 12 278 9.7 22.5 0.00 0.43 0.00 94 1001.7
20260905000037 12 279 9.7 24.1 0.00 0.43 0.00 94 1001.4
20260904234537 12 276 6.4 20.9 0.00 0.43 0.00 94 1001.2
20260904233035 12 282 6.4 20.9 0.00 0.43 0.00 94 1001.1
20260904231531 12 260 8.0 25.7 0.00 0.43 0.00 94 1000.9
20260904230030 12 277 14.5 24.1 0.00 0.43 0.00 94 1000.8
20260904224528 12 252 9.7 24.1 0.00 0.43 0.00 94 1000.9
20260904223027 12 266 3.2 8.0 0.00 0.43 0.00 94 1000.7
20260904221523 12 254 3.2 11.3 0.00 0.43 0.00 93 1000.5
20260904220023 12 263 3.2 12.9 0.00 0.43 0.00 93 1000.4
20260904214520 12 259 4.8 16.1 0.00 0.43 0.43 93 1000.3
20260904213020 12 284 4.8 19.3 0.00 0.43 0.43 93 1000.3
20260904211519 12 260 9.7 19.3 0.00 0.43 0.43 93 1000.2
20260904210021 12 291 12.9 24.1 0.00 0.43 0.43 93 1000.1
20260904204517 12 249 9.7 22.5 0.00 0.43 0.43 92 999.9
20260904203024 12 265 12.9 29.0 0.00 0.43 0.43 92 999.9
20260904201514 12 261 17.7 30.6 0.00 0.43 0.43 92 999.6
20260904200016 13 256 19.3 38.6 0.00 0.43 0.43 92 999.6
20260904194512 13 286 19.3 35.4 0.00 0.43 0.43 92 999.2
20260904193012 13 278 27.4 40.2 0.00 0.43 0.43 93 999.2
20260904191508 13 281 20.9 35.4 0.03 0.43 0.43 93 999.1
20260904190007 13 277 22.5 41.8 0.05 0.43 0.43 93 998.8
20260904184505 13 268 20.9 37.0 0.05 0.43 0.43 94 998.7
20260904183002 13 271 19.3 37.0 0.05 0.43 0.43 94 998.6
20260904181610 14 240 4.8 14.5 0.03 0.41 0.41 94 998.3
20260904180100 14 245 3.2 16.1 0.08 0.38 0.38 94 998.4
20260904174602 14 260 3.2 14.5 0.20 0.38 0.38 93 998.6
20260904173059 14 255 6.4 16.1 0.23 0.38 0.38 93 998.5
20260904171618 14 257 8.0 22.5 0.23 0.38 0.38 92 998.4
20260904170058 15 262 4.8 14.5 0.15 0.30 0.30 92 998.5
20260904164557 15 279 3.2 16.1 0.03 0.18 0.18 90 998.3
20260904163056 15 263 4.8 22.5 0.00 0.15 0.15 89 998.2
20260904161555 16 229 4.8 14.5 0.00 0.15 0.15 87 998.1
20260904160055 16 252 3.2 12.9 0.00 0.15 0.15 87 998.0